This demonstration page uses our WeatherBlox Daily Observations layout. Learn more.

Left ArrowRight Arrow

Hourly Observations for February 10, 2016

Temp ( °F °C ) Dew Point ( °F °C ) Humidity (%) Winds ( mph kmh ) Pressure ( in mb ) Visibility ( mi km ) Precip ( " mm )
12:58 am 00:58 Cloudy 21 -6.3 16 -8.7 83 83 SSE 1 2 30.24 1024 10 16 0.00 0.00
1:58 am 01:58 Cloudy 21 -6.2 16 -8.8 82 82 SSW 2 4 30.21 1023 10 16 0.00 0.00
2:58 am 02:58 Cloudy 22 -5.7 18 -8 84 84 SSE 5 7 30.18 1022 10 16 0.00 0.00
3:44 am 03:44 Cloudy with Light Snow 23 -5 18 -8 80 80 SSE 5 7 30.21 1023 10 16 0.00 0.00
3:58 am 03:58 Cloudy 23 -5 18 -8 80 80 S 7 11 30.17 1022 10 16 0.00 0.03
4:58 am 04:58 Cloudy 24 -4.5 17 -8.1 76 76 SE 6 9 30.14 1021 10 16 0.00 0.03
5:58 am 05:58 Cloudy 24 -4.2 19 -7.3 79 79 SSE 7 11 30.12 1020 10 16 0.00 0.00
6:00 am 06:00 Cloudy with Light Snow 25 -4 19 -7 80 80 SSE 6 9 30.12 1020 10 16 0.00 0.00
6:20 am 06:20 Cloudy 25 -4 19 -7 80 80 SSE 5 7 30.09 1019 10 16 0.00 0.00
6:58 am 06:58 Mostly Cloudy 26 -3.6 20 -6.9 78 78 SSE 7 11 30.09 1019 10 16 0.00 0.03
7:58 am 07:58 Cloudy 26 -3.1 19 -7.2 74 74 SE 9 15 30.06 1018 10 16 0.00 0.00
8:58 am 08:58 Mostly Cloudy 28 -2 19 -7.3 67 67 SSE 12 19 30.04 1017 10 16 0.00 0.00
9:58 am 09:58 Mostly Cloudy 30 -1.1 18 -7.9 60 60 SSE 10 17 30.02 1017 10 16 0.00 0.00
10:58 am 10:58 Mostly Sunny 33 0.5 18 -7.8 54 54 S 10 17 30.00 1016 10 16 0.00 0.00
11:58 am 11:58 Sunny 35 1.4 20 -6.9 54 54 S 9 15 29.98 1015 10 16 0.00 0.00
12:58 pm 12:58 Sunny 36 2.3 21 -6.1 54 54 SE 5 7 29.96 1015 10 16 0.00 0.00
1:58 pm 13:58 Sunny 38 3.4 22 -5.6 52 52 SSE 6 9 29.95 1014 10 16 0.00 0.00
2:58 pm 14:58 Sunny 38 3.5 23 -4.9 55 55 ESE 2 4 29.96 1014 10 16 0.00 0.00
3:58 pm 15:58 Sunny 40 4.6 24 -4.5 52 52 NE 7 11 29.95 1014 10 16 0.00 0.00
4:58 pm 16:58 Sunny 38 3.6 25 -3.7 59 59 NE 9 15 29.98 1015 10 16 0.00 0.00
5:58 pm 17:58 Clear 34 1.1 26 -3.5 72 72 NNE 9 15 30.03 1017 10 16 0.00 0.00
6:58 pm 18:58 Clear 29 -1.9 25 -3.9 86 86 NE 10 17 30.07 1018 10 16 0.00 0.00
7:58 pm 19:58 Clear 26 -3.5 22 -5.6 86 86 NNE 8 13 30.11 1020 10 16 0.00 0.00
8:58 pm 20:58 Cloudy 25 -3.8 21 -6.2 84 84 NE 8 13 30.15 1021 10 16 0.00 0.00
9:58 pm 21:58 Mostly Cloudy 23 -4.9 19 -7.1 85 85 NE 10 17 30.18 1022 10 16 0.00 0.00
10:05 pm 22:05 Mostly Cloudy 23 -5 19 -7 86 86 NE 13 20 30.24 1024 10 16 0.00 0.00
10:31 pm 22:31 Partly Cloudy 23 -5 19 -7 86 86 NE 8 13 30.24 1024 10 16 0.00 0.00
10:58 pm 22:58 Partly Cloudy 22 -5.4 18 -7.6 85 85 NE 10 17 30.20 1023 10 16 0.00 0.00
11:58 pm 23:58 Mostly Clear 21 -6.1 17 -8.3 85 85 NNE 8 13 30.23 1024 10 16 0.00 0.00

Powered by AerisWeather